| time (UTC) | temp F | wind direction | speed knots | gust knots | rain 1hr in | rain 24hr in | rain mn in | humidity % | barometer mb |
| 20260510191530 | 80 | 78 | 0.0 | 5.2 | 0.00 | 0.00 | 0.00 | 52 | 1012.0 |
| 20260510190034 | 80 | 146 | 1.7 | 7.8 | 0.00 | 0.00 | 0.00 | 56 | 1012.0 |
| 20260510184527 | 82 | 284 | 0.0 | 4.3 | 0.00 | 0.00 | 0.00 | 51 | 1012.2 |
| 20260510183026 | 81 | 150 | 0.9 | 4.3 | 0.00 | 0.00 | 0.00 | 51 | 1012.2 |
| 20260510181525 | 82 | 273 | 0.0 | 7.8 | 0.00 | 0.00 | 0.00 | 41 | 1012.4 |
| 20260510180025 | 83 | 132 | 0.0 | 3.5 | 0.00 | 0.00 | 0.00 | 44 | 1012.5 |
| 20260510174520 | 82 | 330 | 0.9 | 7.8 | 0.00 | 0.00 | 0.00 | 48 | 1012.5 |
| 20260510173017 | 80 | 144 | 0.0 | 1.7 | 0.00 | 0.00 | 0.00 | 43 | 1012.5 |
| 20260510171516 | 81 | 250 | 0.0 | 5.2 | 0.00 | 0.00 | 0.00 | 43 | 1012.7 |
| 20260510170016 | 82 | 184 | 4.3 | 8.7 | 0.00 | 0.00 | 0.00 | 47 | 1012.9 |
| 20260510164523 | 80 | 313 | 0.9 | 4.3 | 0.00 | 0.00 | 0.00 | 48 | 1012.9 |
| 20260510163011 | 81 | 194 | 3.5 | 9.6 | 0.00 | 0.00 | 0.00 | 46 | 1013.1 |
| 20260510161508 | 79 | 176 | 0.9 | 6.1 | 0.00 | 0.00 | 0.00 | 55 | 1013.1 |
| 20260510160007 | 80 | 203 | 0.9 | 5.2 | 0.00 | 0.00 | 0.00 | 54 | 1013.1 |
| 20260510154504 | 78 | 215 | 0.0 | 4.3 | 0.00 | 0.00 | 0.00 | 58 | 1013.3 |
| 20260510153001 | 76 | 140 | 0.0 | 0.0 | 0.00 | 0.00 | 0.00 | 61 | 1013.3 |
| 20260510151559 | 76 | 286 | 0.0 | 0.0 | 0.00 | 0.00 | 0.00 | 59 | 1013.4 |
| 20260510150120 | 76 | 203 | 0.0 | 0.0 | 0.00 | 0.00 | 0.00 | 62 | 1013.2 |
| 20260510144552 | 74 | 184 | 0.0 | 0.0 | 0.00 | 0.00 | 0.00 | 64 | 1013.0 |
| 20260510143046 | 73 | 167 | 0.0 | 0.0 | 0.00 | 0.00 | 0.00 | 66 | 1012.8 |
| 20260510141542 | 72 | 180 | 0.0 | 0.0 | 0.00 | 0.00 | 0.00 | 69 | 1012.9 |
| 20260510140038 | 70 | 159 | 0.0 | 0.0 | 0.00 | 0.00 | 0.00 | 71 | 1012.9 |
| 20260510134536 | 69 | 175 | 0.0 | 0.0 | 0.00 | 0.00 | 0.00 | 74 | 1012.8 |
| 20260510133032 | 67 | 315 | 0.0 | 0.0 | 0.00 | 0.00 | 0.00 | 74 | 1012.8 |
| 20260510131527 | 65 | 311 | 0.0 | 0.0 | 0.00 | 0.00 | 0.00 | 78 | 1012.9 |
| 20260510130023 | 63 | 311 | 0.0 | 0.0 | 0.00 | 0.00 | 0.00 | 85 | 1013.2 |
| 20260510124527 | 61 | 305 | 0.0 | 0.0 | 0.00 | 0.00 | 0.00 | 90 | 1013.3 |
| 20260510123017 | 59 | 341 | 0.0 | 0.0 | 0.00 | 0.00 | 0.00 | 93 | 1013.1 |
| 20260510121513 | 58 | 310 | 0.0 | 0.0 | 0.00 | 0.00 | 0.00 | 94 | 1013.0 |
| 20260510120019 | 56 | 331 | 0.0 | 0.0 | 0.00 | 0.00 | 0.00 | 95 | 1012.7 |
| 20260510114515 | 55 | 319 | 0.0 | 0.0 | 0.00 | 0.00 | 0.00 | 95 | 1012.6 |
| 20260510113005 | 53 | 127 | 0.0 | 0.0 | 0.00 | 0.00 | 0.00 | 95 | 1012.2 |
| 20260510111502 | 52 | 127 | 0.0 | 0.0 | 0.00 | 0.00 | 0.00 | 95 | 1012.0 |
| 20260510110105 | 50 | 112 | 0.0 | 0.0 | 0.00 | 0.00 | 0.00 | 94 | 1011.9 |
| 20260510104607 | 50 | 112 | 0.0 | 0.0 | 0.00 | 0.00 | 0.00 | 94 | 1011.6 |
| 20260510103104 | 50 | 112 | 0.0 | 0.0 | 0.00 | 0.00 | 0.00 | 94 | 1011.5 |
| 20260510101559 | 49 | 112 | 0.0 | 0.0 | 0.00 | 0.00 | 0.00 | 94 | 1011.4 |
| 20260510100053 | 49 | 112 | 0.0 | 0.0 | 0.00 | 0.00 | 0.00 | 94 | 1011.3 |
| 20260510094604 | 49 | 112 | 0.0 | 0.0 | 0.00 | 0.00 | 0.00 | 94 | 1011.2 |
| 20260510093100 | 50 | 112 | 0.0 | 0.0 | 0.00 | 0.00 | 0.00 | 94 | 1011.2 |
| 20260510091545 | 50 | 111 | 0.0 | 0.0 | 0.00 | 0.00 | 0.00 | 94 | 1011.1 |
| 20260510090047 | 50 | 111 | 0.0 | 0.0 | 0.00 | 0.00 | 0.00 | 94 | 1011.0 |
| 20260510084541 | 51 | 111 | 0.0 | 0.0 | 0.00 | 0.00 | 0.00 | 94 | 1010.8 |
| 20260510083051 | 51 | 111 | 0.0 | 0.0 | 0.00 | 0.00 | 0.00 | 93 | 1010.6 |
| 20260510081540 | 51 | 111 | 0.0 | 0.0 | 0.00 | 0.00 | 0.00 | 94 | 1010.4 |
| 20260510080034 | 51 | 111 | 0.0 | 0.0 | 0.00 | 0.00 | 0.00 | 93 | 1010.2 |
| 20260510074532 | 52 | 111 | 0.0 | 0.0 | 0.00 | 0.00 | 0.00 | 93 | 1010.0 |
| 20260510073030 | 52 | 111 | 0.0 | 0.0 | 0.00 | 0.00 | 0.00 | 93 | 1010.0 |
| 20260510071535 | 52 | 111 | 0.0 | 0.0 | 0.00 | 0.00 | 0.00 | 93 | 1010.0 |
| 20260510070028 | 52 | 111 | 0.0 | 0.0 | 0.00 | 0.00 | 0.00 | 93 | 1009.9 |
| 20260510064528 | 53 | 111 | 0.0 | 0.0 | 0.00 | 0.00 | 0.00 | 93 | 1009.8 |
| 20260510063025 | 53 | 111 | 0.0 | 0.0 | 0.00 | 0.00 | 0.00 | 92 | 1009.8 |
| 20260510061523 | 53 | 111 | 0.0 | 0.0 | 0.00 | 0.00 | 0.00 | 92 | 1009.7 |
| 20260510060035 | 53 | 111 | 0.0 | 0.0 | 0.00 | 0.00 | 0.00 | 92 | 1009.6 |
| 20260510054533 | 53 | 111 | 0.0 | 0.0 | 0.00 | 0.00 | 0.00 | 91 | 1009.7 |
| 20260510053019 | 54 | 111 | 0.0 | 0.0 | 0.00 | 0.00 | 0.00 | 91 | 1009.8 |
| 20260510051517 | 54 | 111 | 0.0 | 0.0 | 0.00 | 0.00 | 0.00 | 91 | 1009.9 |
| 20260510050015 | 54 | 111 | 0.0 | 0.0 | 0.00 | 0.00 | 0.00 | 91 | 1009.8 |
| 20260510044514 | 55 | 111 | 0.0 | 0.0 | 0.00 | 0.00 | 0.00 | 90 | 1009.8 |
| 20260510043012 | 55 | 111 | 0.0 | 0.0 | 0.00 | 0.00 | 0.00 | 89 | 1009.9 |
| 20260510041509 | 55 | 111 | 0.0 | 0.0 | 0.00 | 0.00 | 0.00 | 88 | 1009.7 |
| 20260510040006 | 56 | 111 | 0.0 | 0.0 | 0.00 | 0.00 | 0.00 | 87 | 1009.8 |
| 20260510034513 | 57 | 111 | 0.0 | 0.0 | 0.00 | 0.00 | 0.00 | 87 | 1009.7 |
| 20260510033005 | 57 | 111 | 0.0 | 0.0 | 0.00 | 0.00 | 0.00 | 85 | 1009.6 |
| 20260510031509 | 58 | 111 | 0.0 | 0.0 | 0.00 | 0.00 | 0.00 | 84 | 1009.4 |
| 20260510030008 | 59 | 111 | 0.0 | 0.0 | 0.00 | 0.00 | 0.00 | 83 | 1009.3 |
| 20260510024503 | 60 | 111 | 0.0 | 0.0 | 0.00 | 0.00 | 0.00 | 82 | 1009.3 |
| 20260510023001 | 60 | 111 | 0.0 | 0.0 | 0.00 | 0.00 | 0.00 | 82 | 1009.3 |
| 20260510021501 | 61 | 111 | 0.0 | 0.0 | 0.00 | 0.00 | 0.00 | 80 | 1009.2 |
| 20260510020002 | 61 | 111 | 0.0 | 0.0 | 0.00 | 0.00 | 0.00 | 80 | 1009.0 |
| 20260510014603 | 60 | 111 | 0.0 | 0.0 | 0.00 | 0.00 | 0.00 | 79 | 1009.0 |
| 20260510013105 | 61 | 111 | 0.0 | 0.0 | 0.00 | 0.00 | 0.00 | 78 | 1008.8 |
| 20260510011600 | 62 | 111 | 0.0 | 0.0 | 0.00 | 0.00 | 0.00 | 76 | 1008.6 |
| 20260510010103 | 62 | 111 | 0.0 | 0.0 | 0.00 | 0.00 | 0.00 | 75 | 1008.5 |
| 20260510004600 | 63 | 114 | 0.0 | 3.5 | 0.00 | 0.00 | 0.00 | 74 | 1008.5 |
| 20260510003101 | 63 | 126 | 0.0 | 2.6 | 0.00 | 0.00 | 0.00 | 75 | 1008.4 |
| 20260510001557 | 64 | 94 | 0.0 | 5.2 | 0.00 | 0.00 | 0.00 | 75 | 1008.3 |
| 20260510000058 | 65 | 107 | 0.0 | 2.6 | 0.00 | 0.00 | 0.00 | 74 | 1008.2 |
| 20260509234557 | 66 | 88 | 0.0 | 1.7 | 0.00 | 0.00 | 0.00 | 73 | 1008.1 |
| 20260509233056 | 67 | 100 | 0.0 | 3.5 | 0.00 | 0.00 | 0.00 | 71 | 1008.0 |
| 20260509231558 | 68 | 99 | 0.0 | 3.5 | 0.00 | 0.00 | 0.00 | 68 | 1007.8 |
| 20260509230059 | 69 | 98 | 0.0 | 5.2 | 0.00 | 0.00 | 0.00 | 66 | 1007.7 |
| 20260509224559 | 71 | 105 | 0.0 | 4.3 | 0.00 | 0.00 | 0.00 | 61 | 1007.8 |
| 20260509223054 | 72 | 173 | 0.0 | 4.3 | 0.00 | 0.00 | 0.00 | 62 | 1007.8 |
| 20260509221555 | 71 | 230 | 0.0 | 6.1 | 0.00 | 0.00 | 0.00 | 61 | 1007.8 |
| 20260509220055 | 72 | 196 | 1.7 | 7.0 | 0.00 | 0.00 | 0.00 | 61 | 1007.9 |
| 20260509214558 | 73 | 259 | 0.9 | 6.1 | 0.00 | 0.00 | 0.00 | 57 | 1007.9 |
| 20260509213117 | 74 | 178 | 1.7 | 7.0 | 0.00 | 0.00 | 0.00 | 56 | 1007.7 |
| 20260509211553 | 74 | 220 | 0.9 | 6.1 | 0.00 | 0.00 | 0.00 | 59 | 1007.6 |
| 20260509204549 | 75 | 203 | 1.7 | 7.0 | 0.00 | 0.00 | 0.00 | 56 | 1007.6 |
| 20260509203047 | 75 | 167 | 1.7 | 6.1 | 0.00 | 0.00 | 0.00 | 54 | 1007.6 |
| 20260509201546 | 75 | 220 | 1.7 | 4.3 | 0.00 | 0.00 | 0.00 | 54 | 1007.9 |
| 20260509200043 | 72 | 207 | 0.9 | 6.1 | 0.00 | 0.00 | 0.00 | 59 | 1008.1 |
| 20260509194541 | 72 | 12 | 1.7 | 7.0 | 0.00 | 0.00 | 0.00 | 63 | 1008.3 |
| 20260509193043 | 74 | 212 | 0.9 | 7.0 | 0.00 | 0.00 | 0.00 | 56 | 1008.3 |